Gallatin, TN (37066)

4:40 PM CDT on July 23, 2017 (GMT -0500)
Cottages of Last Plantation | | Change Station
Active Advisory: Heat Advisory

Elev 499 ft 36.36 °N, 86.49 °W | Updated 16 seconds ago

Clear
Clear
96.5 °F
Feels Like 112 °F
N
0.0
Wind Variable Wind from SE

Today
High -- | Low -- °F
--% Chance of Precip.
Yesterday
High -- | Low -- °F
Precip. -- in
Pressure 29.81 in
Visibility 10.0 miles
Clouds Scattered Clouds 4700 ft
Scattered Clouds 23000 ft
Heat Index 112 °F
Dew Point 77 °F
Humidity 54%
Rainfall 0.00 in
Snow Depth Not available.
5:45 AM 7:58 PM
New Moon, 0% visible
METAR KBNA 232053Z 25008KT 10SM SCT047 SCT230 35/23 A2984 RMK AO2 SLP095 T03500228 58015
Pressure 29.81 in
Visibility 10.0 miles
Clouds Scattered Clouds 4700 ft
Scattered Clouds 23000 ft
Heat Index 112 °F
Dew Point 77 °F
Humidity 54%
Rainfall 0.00 in
Snow Depth Not available.
5:45 AM 7:58 PM
New Moon, 0% visible
METAR KBNA 232053Z 25008KT 10SM SCT047 SCT230 35/23 A2984 RMK AO2 SLP095 T03500228 58015

Get Your Daily Forecast Email!

Thanks for signing up!

Be on the lookout for a verification email in your inbox.

You'll start receiving severe weather alerts in your inbox..

×

10-Day Weather Forecast

Almanac

Astronomy

Jul. 23, 2017 Rise Set
Actual Time
Civil Twilight
Nautical Twilight
Astronomical Twilight
Moon
Length of Visible Light
Length of Day
Tomorrow will be .
, % of the Moon is Illuminated

Today's Extremes

State Highs State Lows

Community

WunderPhotos

Category 6

Welcome to Category 6. This is the collective home for Weather Underground's featured writeups by Dr. Jeff Masters (right), Bob Henson (left), Chris Burt, and other regular contributors.

Nearby

Air Quality

  Air Quality AQ Index Pollutant
Not available.

Snow Depth

Station Depth Elevation

Earthquake Activity

City Distance Mag. Time & Date
Minimum magnitude displayed is 2.5.

Coastal Water Temperatures

Place Temperature

Stations

Nearby Weather Stations

Station Location Temp. Windchill Dew Point Humidity Wind Precip. Elev Updated Type
                   

Watches & Warnings

Heat Advisory
Issued: 2:50 AM CDT Jul. 23, 2017 – National Weather Service

... Heat advisory remains in effect until 7 PM CDT this evening...

* heat index values... 100 to 106 during the afternoon hours.

* Impacts... the combination of hot temperatures and high
humidity will lead to an increased risk of heat related stress
and illness. The very Young, the elderly, those without air
conditioning, and those participating in strenuous outdoor
activities will be the most susceptible. Also, car interiors
will reach lethal temperatures in a matter of minutes.

Precautionary/preparedness actions...

A heat advisory means that a period of hot temperatures is
expected. The combination of hot temperatures and high humidity
will combine to create a situation in which heat illnesses are
possible. Drink plenty of fluids... stay in an air-conditioned
room... stay out of the sun... and check on relatives and
neighbors.



13